Weather History for Pamplona, Spain

Change the Weather History Date:

Wednesday, November 6, 2013

  Actual Average Record
Temperature  
Mean Temperature 64 °F -  
Max Temperature 71 °F 51 °F 71 °F (2013)
Min Temperature 55 °F 39 °F 33 °F (2005)
Degree Days  
Heating Degree Days 1    
Growing Degree Days 14 (Base 50)    
Moisture  
Dew Point 57 °F    
Average Humidity 80    
Maximum Humidity 100    
Minimum Humidity 57    
Precipitation  
Precipitation 0.00 in - - ()
Sea Level Pressure  
Sea Level Pressure 30.11 in    
Wind  
Wind Speed 3 mph ()    
Max Wind Speed 12 mph    
Max Gust Speed -    
Visibility 6.2 miles    
Events      
Averages and records for this station are not official NWS values.
T = Trace of Precipitation, MM = Missing Value Source: Averaged Metar Reports

Daily Weather History Graph

Daily Weather History Graph

Search for Another Location

Airport:

Trip Planner

Search our weather history database for the weather conditions in past years. The results will help you decide how hot, cold, wet, or windy it might be!

Date:

Astronomy

Nov. 06, 2013 Rise Set
Actual Time 7:47 AM CET 5:52 PM CET
Civil Twilight 7:17 AM CET 6:22 PM CET
Nautical Twilight 6:43 AM CET 6:56 PM CET
Astronomical Twilight 6:10 AM CET 7:29 PM CET
Moon 10:49 AM CET (11/6) 8:39 PM CET (11/6)
Length of Visible Light 11h 05m
Length of Day
10h 05m
Waxing Crescent, 11% of the Moon is Illuminated
Nov 6
Waxing Crescent
Nov 10
First Quarter
Nov 17
Full
Nov 25
Last Quarter
Dec 3
New

Hourly Weather History & Observations

Time (CET) Temp. Dew Point Humidity Pressure Visibility Wind Dir Wind Speed Gust Speed Precip Events Conditions
12:00 AM 62.6 °F 59.0 °F 88% 30.09 in 6.2 mi North 11.5 mph - N/A   Mostly Cloudy
5:30 AM 64.4 °F 57.2 °F 77% 30.12 in 6.2 mi NNW 3.5 mph - N/A   Mostly Cloudy
6:00 AM 64.4 °F 57.2 °F 77% 30.15 in 6.2 mi Calm Calm - N/A   Mostly Cloudy
6:30 AM 62.6 °F 57.2 °F 82% 30.15 in 6.2 mi SSE 2.3 mph - N/A   Mostly Cloudy
7:00 AM 60.8 °F 57.2 °F 88% 30.12 in 6.2 mi Variable 2.3 mph - N/A   Mostly Cloudy
7:30 AM 59.0 °F 57.2 °F 94% 30.12 in 6.2 mi ENE 3.5 mph - N/A   Partly Cloudy
8:00 AM 59.0 °F 57.2 °F 94% 30.15 in 6.2 mi Variable 1.2 mph - N/A   Mostly Cloudy
8:30 AM 59.0 °F 57.2 °F 94% 30.15 in 6.2 mi SSE 2.3 mph - N/A   Mostly Cloudy
9:00 AM 60.8 °F 59.0 °F 94% 30.15 in 6.2 mi Calm Calm - N/A   Mostly Cloudy
9:30 AM 62.6 °F 57.2 °F 82% 30.15 in 6.2 mi Variable 2.3 mph - N/A   Mostly Cloudy
10:00 AM 62.6 °F 57.2 °F 82% 30.15 in 6.2 mi NW 3.5 mph - N/A   Mostly Cloudy
10:30 AM 64.4 °F 57.2 °F 77% 30.15 in 6.2 mi NW 4.6 mph - N/A   Mostly Cloudy
11:00 AM 64.4 °F 57.2 °F 77% 30.18 in 6.2 mi Variable 2.3 mph - N/A   Mostly Cloudy
11:30 AM 64.4 °F 57.2 °F 77% 30.18 in 6.2 mi Calm Calm - N/A   Mostly Cloudy
12:00 PM 64.4 °F 59.0 °F 83% 30.18 in 6.2 mi Calm Calm - N/A   Mostly Cloudy
12:30 PM 66.2 °F 57.2 °F 73% 30.15 in 6.2 mi East 3.5 mph - N/A   Scattered Clouds
1:00 PM 68.0 °F 57.2 °F 68% 30.15 in 6.2 mi Variable 1.2 mph - N/A   Scattered Clouds
1:30 PM 68.0 °F 57.2 °F 68% 30.12 in 6.2 mi Calm Calm - N/A   Scattered Clouds
2:00 PM 68.0 °F 55.4 °F 64% 30.12 in 6.2 mi Calm Calm - N/A   Scattered Clouds
2:30 PM 69.8 °F 55.4 °F 60% 30.09 in 6.2 mi Calm Calm - N/A   Partly Cloudy
3:00 PM 69.8 °F 55.4 °F 60% 30.09 in 6.2 mi Calm Calm - N/A   Partly Cloudy
3:30 PM 71.6 °F 55.4 °F 57% 30.09 in 6.2 mi NNE 1.2 mph - N/A   Partly Cloudy
4:00 PM 69.8 °F 55.4 °F 60% 30.06 in 6.2 mi Variable 1.2 mph - N/A   Partly Cloudy
4:30 PM 69.8 °F 57.2 °F 64% 30.06 in 6.2 mi Variable 2.3 mph - N/A   Partly Cloudy
5:00 PM 68.0 °F 57.2 °F 68% 30.06 in 6.2 mi South 3.5 mph - N/A   Partly Cloudy
5:30 PM 68.0 °F 55.4 °F 64% 30.06 in 6.2 mi SE 2.3 mph - N/A   Partly Cloudy
6:00 PM 66.2 °F 57.2 °F 73% 30.06 in 6.2 mi Variable 1.2 mph - N/A   Partly Cloudy
6:30 PM 62.6 °F 57.2 °F 82% 30.06 in 6.2 mi SE 8.1 mph - N/A   Partly Cloudy
7:00 PM 60.8 °F 57.2 °F 88% 30.06 in 6.2 mi SSE 4.6 mph - N/A   Partly Cloudy
7:30 PM 60.8 °F 55.4 °F 82% 30.09 in 6.2 mi SSE 5.8 mph - N/A   Partly Cloudy
8:00 PM 60.8 °F 55.4 °F 82% 30.09 in 6.2 mi Variable 1.2 mph - N/A   Partly Cloudy
8:30 PM 59.0 °F 57.2 °F 94% 30.09 in 6.2 mi Calm Calm - N/A   Partly Cloudy
9:00 PM 59.0 °F 55.4 °F 88% 30.09 in 6.2 mi Calm Calm - N/A   Partly Cloudy
9:30 PM 57.2 °F 55.4 °F 94% 30.09 in 6.2 mi Variable 2.3 mph - N/A   Partly Cloudy
10:00 PM 59.0 °F 55.4 °F 88% 30.09 in 6.2 mi Calm Calm - N/A   Partly Cloudy
10:30 PM 57.2 °F 55.4 °F 94% 30.09 in 6.2 mi Calm Calm - N/A   Partly Cloudy
11:00 PM 57.2 °F 55.4 °F 94% 30.09 in 6.2 mi South 1.2 mph - N/A   Partly Cloudy
11:30 PM 55.4 °F 55.4 °F 100% 30.12 in 6.2 mi Variable 2.3 mph - N/A   Mostly Cloudy